Time,TemperatureF,DewpointF,PressureIn,WindDirection,WindDirectionDegrees,WindSpeedMPH,WindSpeedGustMPH,Humidity,HourlyPrecipIn,Conditions,Clouds,dailyrainin,SoftwareType,DateUTC
2013-07-12 00:32:00,67.0,65.0,29.90,North,0,0.0,-999.0,92,0.00,,,-99.99,,2013-07-12 07:32:00,
2013-07-12 00:43:00,67.0,65.0,29.90,North,0,0.0,-999.0,92,0.00,,,-99.99,,2013-07-12 07:43:00,
2013-07-12 00:52:00,67.0,65.0,29.90,North,0,0.0,-999.0,92,0.00,,,-99.99,,2013-07-12 07:52:00,
2013-07-12 01:32:00,67.0,65.0,29.90,South,190,2.0,-999.0,92,0.00,,,-99.99,,2013-07-12 08:32:00,
2013-07-12 01:42:00,67.0,65.0,29.90,South,190,2.0,-999.0,92,0.00,,,-99.99,,2013-07-12 08:42:00,
2013-07-12 01:53:00,67.0,65.0,29.90,South,190,2.0,-999.0,92,0.00,,,-99.99,,2013-07-12 08:53:00,
2013-07-12 02:32:00,67.0,65.0,29.90,South,170,3.0,-999.0,92,0.00,,,-99.99,,2013-07-12 09:32:00,
2013-07-12 02:42:00,67.0,65.0,29.90,South,170,3.0,-999.0,92,0.00,,,-99.99,,2013-07-12 09:42:00,
2013-07-12 02:52:00,67.0,65.0,29.90,South,170,3.0,-999.0,92,0.00,,,-99.99,,2013-07-12 09:52:00,
2013-07-12 03:33:00,67.0,64.0,29.89,SSE,150,1.0,-999.0,91,0.00,,,-99.99,,2013-07-12 10:33:00,
2013-07-12 03:42:00,67.0,64.0,29.89,SSE,150,1.0,-999.0,91,0.00,,,-99.99,,2013-07-12 10:42:00,
2013-07-12 03:52:00,67.0,64.0,29.89,SSE,150,1.0,-999.0,91,0.00,,,-99.99,,2013-07-12 10:52:00,
2013-07-12 04:32:00,67.0,65.0,29.88,SSE,160,1.0,-999.0,92,0.00,,,-99.99,,2013-07-12 11:32:00,
2013-07-12 04:43:00,67.0,65.0,29.88,SSE,160,1.0,-999.0,92,0.00,,,-99.99,,2013-07-12 11:43:00,
2013-07-12 04:52:00,67.0,65.0,29.88,SSE,160,1.0,-999.0,92,0.00,,,-99.99,,2013-07-12 11:52:00,
2013-07-12 05:32:00,67.0,65.0,29.89,South,180,1.0,-999.0,92,0.00,,,-99.99,,2013-07-12 12:32:00,
2013-07-12 05:43:00,67.0,65.0,29.89,South,180,1.0,-999.0,92,0.00,,,-99.99,,2013-07-12 12:43:00,
2013-07-12 05:52:00,67.0,65.0,29.89,South,180,1.0,-999.0,92,0.00,,,-99.99,,2013-07-12 12:52:00,
2013-07-12 06:32:00,66.0,64.0,29.89,North,0,0.0,-999.0,92,0.00,,,-99.99,,2013-07-12 13:32:00,
2013-07-12 06:43:00,66.0,64.0,29.89,North,0,0.0,-999.0,92,0.00,,,-99.99,,2013-07-12 13:43:00,
2013-07-12 06:53:00,66.0,64.0,29.89,North,0,0.0,-999.0,92,0.00,,,-99.99,,2013-07-12 13:53:00,
2013-07-12 07:32:00,66.0,64.0,29.90,SSW,200,2.0,-999.0,93,0.00,,,-99.99,,2013-07-12 14:32:00,
2013-07-12 07:43:00,66.0,64.0,29.90,SSW,200,2.0,-999.0,93,0.00,,,-99.99,,2013-07-12 14:43:00,
2013-07-12 07:53:00,66.0,64.0,29.90,SSW,200,2.0,-999.0,93,0.00,,,-99.99,,2013-07-12 14:53:00,
2013-07-12 08:43:00,67.0,65.0,29.90,North,0,0.0,-999.0,92,0.00,,,-99.99,,2013-07-12 15:43:00,
2013-07-12 08:52:00,67.0,65.0,29.90,North,0,0.0,-999.0,92,0.00,,,-99.99,,2013-07-12 15:52:00,
2013-07-12 08:54:00,68.0,65.0,29.90,North,0,0.0,-999.0,91,0.00,,,-99.99,,2013-07-12 15:54:00,
2013-07-12 09:32:00,68.0,65.0,29.90,North,0,0.0,-999.0,91,0.00,,,-99.99,,2013-07-12 16:32:00,
2013-07-12 09:42:00,68.0,65.0,29.90,North,0,0.0,-999.0,91,0.00,,,-99.99,,2013-07-12 16:42:00,
2013-07-12 10:34:00,69.0,65.0,29.91,North,0,0.0,-999.0,88,0.00,,,-99.99,,2013-07-12 17:34:00,
2013-07-12 10:44:00,69.0,65.0,29.91,North,0,0.0,-999.0,88,0.00,,,-99.99,,2013-07-12 17:44:00,
2013-07-12 10:53:00,69.0,65.0,29.91,North,0,0.0,-999.0,88,0.00,,,-99.99,,2013-07-12 17:53:00,
2013-07-12 11:34:00,70.0,66.0,29.91,West,280,7.0,-999.0,86,0.00,,,-99.99,,2013-07-12 18:34:00,
2013-07-12 11:53:00,70.0,66.0,29.91,West,280,7.0,-999.0,86,0.00,,,-99.99,,2013-07-12 18:53:00,
2013-07-12 12:44:00,70.0,65.0,29.91,West,270,5.0,-999.0,85,0.00,,,-99.99,,2013-07-12 19:44:00,
2013-07-12 12:54:00,70.0,65.0,29.91,West,270,5.0,-999.0,85,0.00,,,-99.99,,2013-07-12 19:54:00,
2013-07-12 13:33:00,71.0,65.0,29.90,West,280,9.0,-999.0,81,0.00,,,-99.99,,2013-07-12 20:33:00,
2013-07-12 13:43:00,71.0,65.0,29.90,West,280,9.0,-999.0,81,0.00,,,-99.99,,2013-07-12 20:43:00,
2013-07-12 13:54:00,71.0,65.0,29.90,West,280,9.0,-999.0,81,0.00,,,-99.99,,2013-07-12 20:54:00,
2013-07-12 14:33:00,72.0,66.0,29.89,NW,310,3.0,-999.0,81,0.00,,,-99.99,,2013-07-12 21:33:00,
2013-07-12 14:44:00,72.0,66.0,29.89,NW,310,3.0,-999.0,81,0.00,,,-99.99,,2013-07-12 21:44:00,
2013-07-12 15:53:00,71.0,65.0,29.88,WSW,240,8.0,-999.0,81,0.00,,,-99.99,,2013-07-12 22:53:00,
2013-07-12 16:33:00,71.0,65.0,29.87,West,270,4.0,-999.0,82,0.00,,,-99.99,,2013-07-12 23:33:00,
2013-07-12 16:42:00,71.0,65.0,29.87,West,270,4.0,-999.0,82,0.00,,,-99.99,,2013-07-12 23:42:00,
2013-07-12 16:53:00,71.0,65.0,29.87,West,270,4.0,-999.0,82,0.00,,,-99.99,,2013-07-12 23:53:00,
2013-07-12 17:45:00,71.0,66.0,29.85,West,270,8.0,-999.0,85,0.00,,,-99.99,,2013-07-13 00:45:00,
2013-07-12 18:34:00,70.0,66.0,29.84,West,270,11.0,-999.0,87,0.00,,,-99.99,,2013-07-13 01:34:00,
2013-07-12 19:35:00,68.0,65.0,29.85,West,270,9.0,-999.0,89,0.00,,,-99.99,,2013-07-13 02:35:00,
2013-07-12 19:44:00,68.0,65.0,29.85,West,270,9.0,-999.0,89,0.00,,,-99.99,,2013-07-13 02:44:00,
2013-07-12 19:53:00,68.0,65.0,29.85,West,270,9.0,-999.0,89,0.00,,,-99.99,,2013-07-13 02:53:00,
2013-07-12 20:44:00,67.0,64.0,29.85,NNW,330,12.0,-999.0,91,0.00,,,-99.99,,2013-07-13 03:44:00,
2013-07-12 20:54:00,67.0,64.0,29.85,NNW,330,12.0,-999.0,91,0.00,,,-99.99,,2013-07-13 03:54:00,
2013-07-12 21:32:00,66.0,64.0,29.87,West,280,5.0,-999.0,92,0.00,,,-99.99,,2013-07-13 04:32:00,
2013-07-12 21:43:00,66.0,64.0,29.87,West,280,5.0,-999.0,92,0.00,,,-99.99,,2013-07-13 04:43:00,
2013-07-12 21:52:00,66.0,64.0,29.87,West,280,5.0,-999.0,92,0.00,,,-99.99,,2013-07-13 04:52:00,
2013-07-12 22:42:00,65.0,63.0,29.88,West,260,3.0,-999.0,92,0.00,,,-99.99,,2013-07-13 05:42:00,
2013-07-12 22:52:00,65.0,63.0,29.88,West,260,3.0,-999.0,92,0.00,,,-99.99,,2013-07-13 05:52:00,
2013-07-12 23:43:00,65.0,63.0,29.90,West,270,1.0,-999.0,92,0.00,,,-99.99,,2013-07-13 06:43:00,
2013-07-12 23:52:00,65.0,63.0,29.90,West,270,1.0,-999.0,92,0.00,,,-99.99,,2013-07-13 06:52:00,